Temp
5 3 2 3 3 2 2 1 1 1 1 0 -0 -0 -0 0 0 1 1 1 2 2
4 3 3 2 2 1 1 -0 -0 0 1 0 -0 -1 -1 -1 -1 -0 0 0 1 1
3 3 2 2 1 1 1 -0 -1 -1 -2 -3 -3 -3 -3 -2 -2 -1 -1 -0 0 0
2 2 1 1 0 -1 -1 -2 -3 -3 -4 -4 -4 -4 -4 -3 -3 -3 -2 -1 -1 -0
2 1 0 -1 -1 -2 -3 -3 -4 -4 -4 -4 -4 -4 -4 -4 -4 -4 -3 -3 -2 -1
1 -0 -2 -2 -2 -3 -4 -4 -4 -5 -5 -5 -5 -5 -5 -5 -5 -5 -4 -4 -3 -3
-1 -1 -2 -2 -2 -3 -4 -4 -5 -5 -5 -5 -6 -6 -6 -6 -6 -6 -6 -6 -6 -5
-1 -1 -2 -2 -3 -3 -4 -5 -5 -5 -6 -6 -6 -6 -6 -7 -7 -8 -8 -8 -7 -7
-1 -2 -2 -2 -4 -5 -5 -5 -5 -6 -6 -7 -7 -7 -8 -9 -9 -9 -9 -9 -8 -8
-2 -2 -2 -3 -5 -5 -5 -6 -6 -6 -7 -7 -8 -8 -9 -10 -10 -9 -9 -9 -8 -8
-2 -3 -3 -5 -5 -6 -6 -7 -7 -7 -8 -8 -9 -9 -9 -9 -10 -9 -9 -9 -9 -8
-2 -3 -5 -6 -6 -7 -7 -8 -8 -8 -9 -9 -9 -8 -8 -8 -9 -9 -9 -9 -8 -8
-3 -4 -6 -6 -7 -7 -8 -8 -9 -9 -10 -10 -8 -7 -7 -7 -8 -9 -9 -8 -8 -8
-4 -6 -6 -7 -8 -8 -9 -10 -10 -10 -9 -9 -8 -8 -7 -7 -8 -8 -8 -8 -7 -7
Height
1478 1479 1479 1478 1477 1475 1474 1472 1471 1469 1467 1465 1462 1459 1458 1455 1453 1452 1448 1447 1446 1445
1473 1473 1473 1472 1470 1469 1468 1467 1464 1461 1458 1455 1452 1450 1447 1444 1443 1441 1438 1435 1433 1433
1468 1469 1468 1467 1464 1463 1461 1459 1456 1452 1449 1446 1443 1440 1438 1434 1430 1428 1425 1424 1423 1422
1464 1464 1463 1462 1459 1456 1453 1450 1447 1443 1439 1436 1433 1429 1426 1422 1418 1415 1413 1412 1411 1410
1459 1458 1457 1456 1453 1450 1445 1441 1437 1433 1430 1426 1422 1418 1414 1410 1407 1404 1401 1400 1399 1398
1454 1452 1451 1448 1445 1442 1437 1432 1427 1424 1419 1414 1410 1405 1402 1398 1394 1392 1389 1388 1387 1386
1447 1446 1444 1440 1436 1432 1427 1422 1417 1413 1407 1402 1397 1393 1390 1387 1383 1379 1376 1374 1373 1372
1441 1439 1436 1432 1428 1423 1418 1413 1407 1402 1396 1392 1387 1383 1379 1375 1371 1366 1363 1361 1359 1358
1434 1432 1429 1424 1420 1414 1409 1403 1398 1392 1387 1381 1376 1372 1366 1361 1357 1354 1351 1348 1347 1346
1428 1425 1421 1416 1411 1406 1400 1394 1388 1382 1377 1370 1365 1359 1354 1350 1346 1343 1340 1337 1335 1335
1422 1418 1414 1409 1404 1398 1392 1385 1378 1372 1367 1360 1353 1347 1342 1339 1335 1331 1327 1325 1324 1323
1416 1412 1407 1402 1396 1390 1383 1377 1370 1364 1357 1350 1342 1338 1333 1328 1323 1318 1315 1313 1311 1310
1410 1406 1401 1395 1388 1383 1377 1369 1363 1355 1349 1342 1334 1329 1324 1319 1313 1308 1305 1302 1299 1298
1404 1400 1394 1388 1383 1376 1369 1361 1354 1347 1341 1335 1329 1322 1316 1311 1305 1300 1296 1292 1290 1288
Wind_Speed
20 13 10 15 16 17 16 20 23 27 30 30 30 30 30 31 32 33 35 37 37 36
19 17 16 17 18 17 20 21 23 31 33 33 31 31 29 29 31 31 34 36 37 38
17 16 16 18 21 23 26 27 30 31 28 26 27 28 28 30 31 32 34 35 36 36
13 15 18 20 21 23 26 28 26 25 25 27 28 27 28 30 31 31 33 35 39 39
15 16 18 18 22 24 24 25 25 25 26 28 28 28 29 30 31 32 33 35 36 40
17 15 15 17 21 23 24 24 25 26 28 29 29 29 30 31 32 34 36 36 37 39
12 17 19 23 27 28 28 28 28 29 30 30 31 31 31 32 33 35 38 39 41 43
16 21 24 27 31 30 29 29 29 31 32 31 31 31 30 31 32 35 34 35 38 40
20 21 26 31 30 28 28 29 29 31 31 33 32 33 37 36 33 31 32 35 36 38
20 25 30 30 28 28 30 31 31 31 31 33 33 35 34 31 32 33 32 33 34 33
23 28 30 27 27 28 29 31 31 31 32 34 34 35 32 32 33 33 35 36 36 38
27 29 27 27 27 28 29 30 31 31 32 33 34 33 31 30 31 31 33 34 35 36
27 27 26 27 27 28 29 30 31 33 31 31 33 29 27 25 28 30 29 30 30 32
26 24 27 26 26 28 28 31 33 32 31 32 31 31 29 26 26 29 28 27 28 31
Wind_Direction
245 242 246 269 278 288 288 290 294 294 292 288 285 283 280 277 273 270 267 266 263 262
249 254 266 276 289 295 297 298 298 299 298 294 290 285 281 276 270 266 264 263 260 257
255 267 276 288 295 295 299 302 301 298 292 286 282 278 275 272 270 266 263 261 260 257
257 272 283 292 298 301 300 301 294 291 285 282 281 278 275 272 272 268 265 261 258 256
265 281 290 293 298 301 298 296 291 288 284 283 282 279 276 273 271 269 266 264 260 256
277 280 286 295 300 299 296 294 292 289 286 286 283 281 278 274 273 269 266 264 261 258
266 288 297 305 308 306 304 300 298 295 291 289 287 284 281 277 274 270 267 263 260 254
280 297 308 313 311 307 303 301 298 297 295 291 287 286 282 278 274 270 268 264 260 257
290 303 313 314 309 305 304 304 301 298 295 293 291 287 282 281 276 273 268 266 263 260
298 311 315 313 309 307 307 306 302 300 298 296 294 289 287 283 278 274 270 265 263 262
310 314 314 311 309 308 308 305 304 303 302 300 296 297 294 291 284 278 273 268 263 261
315 314 313 311 310 311 308 307 306 304 305 302 303 307 305 297 288 280 276 272 267 262
312 314 312 312 312 312 310 307 306 308 308 307 315 320 317 308 298 291 284 278 272 269
315 314 314 315 313 313 312 309 313 313 317 325 330 329 328 320 310 300 291 282 280 280